TimeCDT,TemperatureF,Dew PointF,Humidity,Sea Level PressureIn,VisibilityMPH,Wind Direction,Wind SpeedMPH,Gust SpeedMPH,PrecipitationIn,Events,Conditions,WindDirDegrees,DateUTC
12:52 AM,32.0,28.9,88,29.90,2.5,NNE,18.4,25.3,0.00,Snow,Light Snow,30,2013-03-24 05:52:00
1:02 AM,32.0,28.4,87,29.88,1.8,NNE,19.6,27.6,0.01,Snow,Light Snow,30,2013-03-24 06:02:00
1:52 AM,32.0,28.0,85,29.88,1.0,NNE,19.6,27.6,0.01,Snow,Light Snow,30,2013-03-24 06:52:00
2:15 AM,32.0,28.4,87,29.87,1.0,North,16.1,24.2,0.00,Snow,Light Snow,10,2013-03-24 07:15:00
2:25 AM,32.0,28.4,87,29.87,0.8,NNE,15.0,24.2,0.01,Snow,Light Snow,20,2013-03-24 07:25:00
2:36 AM,32.0,28.4,87,29.88,1.0,North,15.0,23.0,0.01,Snow,Light Snow,10,2013-03-24 07:36:00
2:52 AM,32.0,28.9,88,29.89,0.8,North,16.1,23.0,0.01,Snow,Light Snow,360,2013-03-24 07:52:00
3:08 AM,32.0,28.4,87,29.88,0.8,North,15.0,23.0,0.01,Snow,Light Snow,360,2013-03-24 08:08:00
3:11 AM,32.0,28.4,87,29.87,0.5,North,16.1,23.0,0.01,Fog-Snow,Snow,360,2013-03-24 08:11:00
3:19 AM,30.2,28.4,93,29.87,0.5,North,17.3,-,0.01,Fog-Snow,Snow,360,2013-03-24 08:19:00
3:41 AM,30.2,28.4,93,29.86,0.2,North,20.7,26.5,0.01,Fog-Snow,Snow,350,2013-03-24 08:41:00
3:52 AM,30.9,28.0,89,29.88,0.2,North,17.3,-,0.02,Fog-Snow,Snow,350,2013-03-24 08:52:00
4:33 AM,30.2,28.4,93,29.87,0.2,North,21.9,-,0.01,Fog,Light Freezing Fog,350,2013-03-24 09:33:00
4:49 AM,30.2,26.6,86,29.87,0.2,North,21.9,28.8,0.01,Fog-Snow,Snow,350,2013-03-24 09:49:00
4:52 AM,30.0,27.0,88,29.90,0.2,North,24.2,32.2,0.01,Fog-Snow,Snow,350,2013-03-24 09:52:00
5:03 AM,30.2,26.6,86,29.88,0.5,North,20.7,28.8,0.00,Fog-Snow,Light Snow,350,2013-03-24 10:03:00
5:52 AM,30.0,26.1,85,29.90,0.5,North,26.5,32.2,0.01,Fog-Snow,Light Snow,350,2013-03-24 10:52:00
6:06 AM,30.2,26.6,86,29.88,0.5,North,25.3,33.4,0.00,Fog-Snow,Light Snow,360,2013-03-24 11:06:00
6:40 AM,30.2,26.6,86,29.89,0.8,North,25.3,33.4,0.00,Snow,Light Snow,360,2013-03-24 11:40:00
6:52 AM,28.9,26.1,89,29.92,1.0,North,24.2,31.1,0.00,Snow,Light Snow,350,2013-03-24 11:52:00
7:27 AM,28.4,24.8,86,29.91,0.8,North,20.7,29.9,0.00,Snow,Light Snow,350,2013-03-24 12:27:00
7:39 AM,28.4,24.8,86,29.92,0.5,North,20.7,28.8,0.00,Fog-Snow,Light Snow,350,2013-03-24 12:39:00
7:52 AM,28.9,25.0,85,29.95,0.5,North,20.7,-,0.00,Fog-Snow,Light Snow,350,2013-03-24 12:52:00
8:08 AM,28.4,24.8,86,29.93,0.2,NNW,17.3,25.3,0.00,Fog-Snow,Light Snow,340,2013-03-24 13:08:00
8:35 AM,28.4,24.8,86,29.94,0.5,NNW,21.9,-,0.00,Fog-Snow,Light Snow,340,2013-03-24 13:35:00
8:52 AM,28.0,25.0,88,29.97,0.5,NNW,20.7,26.5,0.00,Fog-Snow,Light Snow,340,2013-03-24 13:52:00
9:24 AM,28.4,24.8,86,29.95,0.8,NNW,17.3,29.9,0.00,Snow,Light Snow,340,2013-03-24 14:24:00
9:39 AM,28.4,24.8,86,29.95,0.5,NNW,21.9,28.8,0.00,Fog-Snow,Light Snow,340,2013-03-24 14:39:00
9:52 AM,28.0,24.1,85,29.98,0.5,NNW,20.7,32.2,0.00,Fog-Snow,Light Snow,340,2013-03-24 14:52:00
10:27 AM,28.4,24.8,86,29.96,0.8,NNW,21.9,-,0.00,Snow,Light Snow,340,2013-03-24 15:27:00
10:38 AM,28.4,23.0,80,29.96,1.0,NNW,25.3,32.2,0.00,Snow,Light Snow,340,2013-03-24 15:38:00
10:52 AM,28.9,23.0,78,29.99,1.2,NNW,28.8,34.5,0.00,,Overcast,340,2013-03-24 15:52:00
11:10 AM,28.4,23.0,80,29.97,2.0,NNW,26.5,34.5,0.00,,Haze,340,2013-03-24 16:10:00
11:20 AM,28.4,23.0,80,29.97,2.0,NNW,25.3,34.5,0.00,,Overcast,340,2013-03-24 16:20:00
11:42 AM,30.2,23.0,75,29.98,5.0,North,23.0,31.1,0.00,,Overcast,350,2013-03-24 16:42:00
11:52 AM,30.0,23.0,75,30.00,4.0,NNW,25.3,32.2,0.00,,Overcast,340,2013-03-24 16:52:00
11:59 AM,30.2,23.0,75,29.98,3.0,NNW,27.6,35.7,0.00,,Overcast,340,2013-03-24 16:59:00
12:12 PM,30.2,23.0,75,29.98,1.8,NNW,26.5,-,0.00,,Overcast,340,2013-03-24 17:12:00
12:22 PM,30.2,23.0,75,29.98,2.0,NNW,29.9,34.5,0.00,,Overcast,340,2013-03-24 17:22:00
12:38 PM,30.2,23.0,75,29.98,3.0,NNW,31.1,36.8,0.00,,Overcast,340,2013-03-24 17:38:00
12:43 PM,30.2,23.0,75,29.98,2.5,North,26.5,36.8,0.00,,Overcast,350,2013-03-24 17:43:00
12:52 PM,30.9,24.1,76,30.01,3.0,NNW,27.6,35.7,0.00,,Overcast,330,2013-03-24 17:52:00
1:00 PM,30.2,23.0,75,29.98,2.5,NNW,29.9,35.7,0.00,,Mostly Cloudy,340,2013-03-24 18:00:00
1:10 PM,30.2,24.8,80,29.99,3.0,NNW,31.1,36.8,0.00,,Overcast,330,2013-03-24 18:10:00
1:52 PM,30.9,24.1,76,30.02,3.0,NW,25.3,32.2,0.00,,Overcast,320,2013-03-24 18:52:00
2:16 PM,30.2,23.0,75,30.00,2.0,NW,21.9,35.7,0.00,,Haze,320,2013-03-24 19:16:00
2:27 PM,30.2,23.0,75,30.00,4.0,NW,20.7,29.9,0.00,,Haze,310,2013-03-24 19:27:00
2:52 PM,30.0,21.9,72,30.02,4.0,NW,21.9,31.1,0.00,,Haze,320,2013-03-24 19:52:00
3:52 PM,30.9,21.0,67,30.04,5.0,NW,21.9,31.1,N/A,,Haze,320,2013-03-24 20:52:00
4:52 PM,30.9,21.0,67,30.04,5.0,NW,23.0,31.1,N/A,,Haze,320,2013-03-24 21:52:00
5:00 PM,30.2,19.4,64,30.02,5.0,NW,19.6,28.8,N/A,,Haze,320,2013-03-24 22:00:00
5:52 PM,30.9,21.0,67,30.05,6.0,NW,16.1,25.3,N/A,,Haze,320,2013-03-24 22:52:00
6:52 PM,30.9,19.9,64,30.07,7.0,NW,17.3,27.6,N/A,,Overcast,320,2013-03-24 23:52:00
7:52 PM,30.9,19.9,64,30.09,7.0,NNW,19.6,31.1,N/A,,Overcast,330,2013-03-25 00:52:00
8:52 PM,28.9,19.0,67,30.11,8.0,NW,15.0,-,N/A,,Overcast,320,2013-03-25 01:52:00
9:52 PM,25.0,17.1,72,30.13,7.0,NNW,12.7,-,N/A,,Clear,330,2013-03-25 02:52:00
10:52 PM,23.0,15.1,72,30.13,7.0,NNW,9.2,-,N/A,,Clear,330,2013-03-25 03:52:00
11:52 PM,21.0,15.1,78,30.13,7.0,NW,10.4,-,N/A,,Clear,320,2013-03-25 04:52:00